Погода в Есиповом

Россия / Московская область     56°06′14″N   37°05′53″E
темп.,
°C
ветер,
м/с
пор.,
м/с
влажн.,
%
обл.,
%
осадки,
мм/ч
давл.,
гПа
погр.,
м
19 апреля, пн
пн1900:00+6св277891 0.0 1023210
03:00+6всв4984100 0.0 1023511
06:00+6св4988100 0.0 1023512
09:00+7всв5877100 0.0 1024685
12:00+10всв6860100 0.0 10231146
15:00+10всв5755100 0.0 10231538
18:00+8всв6860100 0.0 10231120
21:00+6всв51063100 0.0 1024863
20 апреля, вт
вт2000:00+5в5957100 0.0 1024939
03:00+3в5107391 0.0 1023685
06:00+2в5107093 0.2 1022654
09:00+3в61072100 0.2 1022649
12:00+7в6856100 0.0 10201244
15:00+4в61089100 0.1 1019820
18:00+2в51196100 0.4 1017557
21:00+2всв51397100 1.5 1014543
21 апреля, ср
ср2100:00+4всв51297100 2.9 10091001
03:00+2всв51397100 6.1 1005672
06:000ссв41099100 8.0 1001408
09:00+1ссз4799100 13.1 999282
12:00+1зсз4899100 3.4 1000300
15:00+3зюз61093100 3.6 1003865
18:00+3юз51192100 0.0 1007933
21:00+3ююз41096100 0.0 1009389
22 апреля, чт
чт2200:00+3ююз4129679 0.2 1010396
03:00+3ююз389762 0.6 1011314
06:00+2ююз3898100 0.0 1012366
09:00+4юз4890100 0.0 1014599
12:00+10ююз477269 0.0 10151333
15:00+11ю467342 0.3 1014908
18:00+10ю4884100 0.9 1015465
21:00+7ююв379459 1.0 1016130
23 апреля, пт
пт2300:00+6ююв3109585 0.0 1016211
03:00+6ю3109572 0.0 1015265
06:00+5ю3109790 0.0 1015235
09:00+10ю5118099 0.0 1015537
12:00+14ю6116989 0.9 10131518
15:00+15ю7116595 1.9 10121417
18:00+13ююв6126635 0.5 10101038
21:00+10ю6158273 1.1 1010718